Location: Sternwarte ZA, Rosenfeld-Brittheim
(48.2889°N, 8.6789°E)
Time: 03:52:19
(UTC+02:00)

ISS - Pass Details

Date: 24 May 2017
Orbit: 401 x 408 km, 51.6° (Epoch: 25 June)

Event Time Altitude Azimuth Distance (km) Brightness Sun altitude
Rises 00:14:56 0° 252° (WSW) 2,334 0.0 -19.3°
Reaches altitude 10° 00:17:02 10° 255° (WSW) 1,474 -1.0 -19.4°
Maximum altitude 00:20:20 75° 340° (NNW) 429 -3.7 -19.6°
Drops below altitude 10° 00:23:38 10° 67° (ENE) 1,474 -0.9 -19.7°
Sets 00:25:44 0° 69° (ENE) 2,335 0.1 -19.8°
